�������l�o���
Date,Time,MP-1(��Sv/h),MP-2(��Sv/h),MP-3(��Sv/h),MP-4(��Sv/h),MP-5(��Sv/h),MP-6(��Sv/h),MP-7(��Sv/h),MP-8(��Sv/h),����,����(m/s),���J
2019/09/07,00:00,0.752,1.056,0.732,1.299,0.962,0.429,0.739,0.696,�k�k��,1.5,��
2019/09/07,00:10,0.752,1.058,0.731,1.300,0.962,0.428,0.737,0.699,�k�k��,2.0,��
2019/09/07,00:20,0.748,1.057,0.730,1.298,0.960,0.427,0.738,0.699,�k,1.9,��
2019/09/07,00:30,0.751,1.060,0.731,1.299,0.965,0.427,0.740,0.697,�k,1.7,��
2019/09/07,00:40,0.749,1.058,0.729,1.300,0.964,0.428,0.741,0.698,�k��,0.9,��
2019/09/07,00:50,0.750,1.057,0.731,1.299,0.962,0.428,0.740,0.698,�k�k��,0.6,��
2019/09/07,01:00,0.748,1.059,0.730,1.299,0.960,0.428,0.737,0.696,�k�k��,0.6,��
2019/09/07,01:10,0.750,1.057,0.731,1.298,0.961,0.429,0.739,0.697,��쐼,0.9,��
2019/09/07,01:20,0.749,1.057,0.730,1.299,0.961,0.426,0.739,0.696,��,0.8,��
2019/09/07,01:30,0.748,1.056,0.730,1.296,0.962,0.428,0.738,0.696,���쐼,0.6,��
2019/09/07,01:40,0.750,1.056,0.731,1.297,0.962,0.427,0.737,0.697,-,CALM,��
2019/09/07,01:50,0.748,1.057,0.729,1.300,0.959,0.428,0.737,0.696,-,CALM,��
2019/09/07,02:00,0.749,1.055,0.729,1.296,0.961,0.426,0.738,0.697,�k,1.1,��
2019/09/07,02:10,0.749,1.056,0.729,1.300,0.961,0.428,0.738,0.696,�k��,0.9,��
2019/09/07,02:20,0.748,1.055,0.732,1.297,0.962,0.426,0.739,0.696,�k,2.2,��
2019/09/07,02:30,0.748,1.054,0.730,1.299,0.960,0.426,0.739,0.698,�k,2.5,��
2019/09/07,02:40,0.748,1.057,0.731,1.299,0.959,0.427,0.738,0.696,�k,2.3,��
2019/09/07,02:50,0.748,1.056,0.730,1.297,0.960,0.426,0.739,0.696,�k,2.5,��
2019/09/07,03:00,0.746,1.057,0.730,1.296,0.958,0.428,0.737,0.698,�k,2.0,��
2019/09/07,03:10,0.747,1.054,0.729,1.298,0.960,0.426,0.736,0.697,�k,2.0,��
2019/09/07,03:20,0.747,1.056,0.728,1.297,0.958,0.427,0.737,0.697,�k,1.9,��
2019/09/07,03:30,0.750,1.054,0.729,1.298,0.960,0.425,0.736,0.697,�k�k��,1.1,��
2019/09/07,03:40,0.748,1.056,0.730,1.295,0.961,0.424,0.738,0.698,�k,1.5,��
2019/09/07,03:50,0.746,1.053,0.730,1.296,0.961,0.426,0.739,0.697,-,CALM,��
2019/09/07,04:00,0.748,1.054,0.730,1.298,0.960,0.426,0.737,0.699,�k,0.8,��
2019/09/07,04:10,0.746,1.057,0.729,1.299,0.961,0.426,0.738,0.699,�k�k��,0.9,��
2019/09/07,04:20,0.746,1.055,0.728,1.297,0.960,0.426,0.738,0.697,�k�k��,1.5,��
2019/09/07,04:30,0.748,1.054,0.730,1.297,0.960,0.426,0.740,0.698,�k�k��,2.2,��
2019/09/07,04:40,0.746,1.053,0.730,1.297,0.959,0.425,0.739,0.697,�k�k��,2.6,��
2019/09/07,04:50,0.748,1.054,0.731,1.297,0.959,0.426,0.739,0.696,�k,1.5,��
2019/09/07,05:00,0.747,1.055,0.730,1.296,0.960,0.425,0.738,0.697,�k,0.9,��
2019/09/07,05:10,0.746,1.058,0.729,1.299,0.961,0.425,0.738,0.697,�k�k��,1.2,��
2019/09/07,05:20,0.747,1.053,0.730,1.298,0.960,0.425,0.738,0.699,�k�k��,1.4,��
2019/09/07,05:30,0.747,1.054,0.729,1.298,0.961,0.425,0.738,0.699,�k�k��,1.5,��
2019/09/07,05:40,0.749,1.054,0.730,1.296,0.959,0.425,0.737,0.698,�k,0.9,��
2019/09/07,05:50,0.747,1.057,0.728,1.296,0.959,0.424,0.738,0.698,�k�k��,0.6,��
2019/09/07,06:00,0.747,1.051,0.731,1.298,0.960,0.426,0.738,0.697,-,CALM,��
2019/09/07,06:10,0.745,1.055,0.728,1.295,0.961,0.425,0.739,0.698,���k��,0.6,��
2019/09/07,06:20,0.749,1.052,0.729,1.296,0.961,0.425,0.738,0.698,�쓌,1.5,��
2019/09/07,06:30,0.747,1.054,0.730,1.296,0.960,0.425,0.738,0.697,�쓌,1.5,��
2019/09/07,06:40,0.749,1.051,0.727,1.295,0.957,0.424,0.738,0.696,��쓌,1.7,��
2019/09/07,06:50,0.749,1.051,0.728,1.295,0.958,0.425,0.739,0.697,��,1.4,��
2019/09/07,07:00,0.748,1.053,0.729,1.295,0.960,0.424,0.737,0.696,��쓌,1.5,��
2019/09/07,07:10,0.747,1.052,0.728,1.295,0.960,0.424,0.737,0.697,��쓌,1.9,��
2019/09/07,07:20,0.748,1.052,0.728,1.297,0.958,0.423,0.738,0.698,�쓌,2.3,��
2019/09/07,07:30,0.747,1.052,0.729,1.293,0.960,0.422,0.738,0.697,��쓌,3.4,��
2019/09/07,07:40,0.747,1.053,0.726,1.295,0.961,0.424,0.737,0.698,��쓌,3.4,��
2019/09/07,07:50,0.749,1.054,0.728,1.296,0.960,0.424,0.740,0.695,��쓌,2.8,��
2019/09/07,08:00,0.747,1.051,0.728,1.297,0.961,0.424,0.739,0.697,��,3.2,��
2019/09/07,08:10,0.747,1.050,0.727,1.296,0.961,0.422,0.738,0.698,��,3.4,��
2019/09/07,08:20,0.746,1.049,0.727,1.295,0.959,0.425,0.738,0.698,��쓌,2.9,��
2019/09/07,08:30,0.747,1.052,0.724,1.298,0.958,0.423,0.738,0.699,��쓌,2.2,��
2019/09/07,08:40,0.746,1.052,0.727,1.299,0.957,0.424,0.738,0.697,��쓌,2.6,��
2019/09/07,08:50,0.745,1.053,0.726,1.297,0.958,0.423,0.737,0.696,��쓌,3.0,��
2019/09/07,09:00,0.747,1.050,0.729,1.298,0.959,0.424,0.737,0.697,��쓌,2.6,��
2019/09/07,09:10,0.747,1.052,0.727,1.297,0.962,0.424,0.738,0.696,��쓌,2.9,��
2019/09/07,09:20,0.746,1.053,0.728,1.298,0.959,0.425,0.738,0.696,��쓌,3.9,��
2019/09/07,09:30,0.747,1.048,0.727,1.298,0.960,0.425,0.737,0.694,��쓌,3.9,��
2019/09/07,09:40,0.747,1.053,0.729,1.298,0.961,0.425,0.738,0.696,��쓌,4.8,��
2019/09/07,09:50,0.745,1.053,0.729,1.299,0.958,0.425,0.738,0.697,��쓌,6.0,��
2019/09/07,10:00,0.749,1.054,0.728,1.297,0.960,0.427,0.738,0.695,��쓌,5.8,��
2019/09/07,10:10,0.747,1.055,0.727,1.298,0.961,0.426,0.739,0.695,��쓌,6.9,��
2019/09/07,10:20,0.747,1.053,0.728,1.298,0.962,0.425,0.738,0.696,��쓌,9.4,��
2019/09/07,10:30,0.747,1.052,0.727,1.299,0.962,0.427,0.738,0.696,��쓌,8.2,��
2019/09/07,10:40,0.748,1.054,0.729,1.301,0.962,0.426,0.739,0.697,��쓌,9.7,��
2019/09/07,10:50,0.750,1.053,0.728,1.302,0.962,0.425,0.739,0.697,��쓌,9.2,��
2019/09/07,11:00,0.750,1.056,0.728,1.299,0.961,0.426,0.739,0.696,��쓌,11.0,��
2019/09/07,11:10,0.750,1.054,0.727,1.299,0.963,0.426,0.739,0.698,��쓌,10.0,��
2019/09/07,11:20,0.750,1.057,0.730,1.298,0.962,0.426,0.738,0.697,��쓌,10.5,��
2019/09/07,11:30,0.751,1.058,0.727,1.301,0.962,0.426,0.738,0.697,��쓌,10.2,��
2019/09/07,11:40,0.750,1.057,0.731,1.297,0.966,0.427,0.739,0.697,��쓌,10.0,��
2019/09/07,11:50,0.750,1.060,0.729,1.300,0.964,0.426,0.740,0.697,��쓌,10.3,��
2019/09/07,12:00,0.750,1.062,0.730,1.300,0.965,0.428,0.740,0.696,��쓌,10.7,��
2019/09/07,12:10,0.750,1.061,0.729,1.299,0.964,0.427,0.738,0.697,��쓌,10.3,��
2019/09/07,12:20,0.751,1.062,0.731,1.300,0.965,0.427,0.741,0.697,��쓌,10.3,��
2019/09/07,12:30,0.751,1.065,0.730,1.299,0.964,0.428,0.739,0.696,��쓌,10.2,��
2019/09/07,12:40,0.750,1.062,0.733,1.298,0.966,0.426,0.740,0.697,��쓌,10.6,��
2019/09/07,12:50,0.752,1.062,0.732,1.300,0.970,0.426,0.740,0.698,��쓌,11.3,��
2019/09/07,13:00,0.750,1.064,0.732,1.301,0.965,0.426,0.740,0.699,��쓌,11.0,��
2019/09/07,13:10,0.751,1.059,0.731,1.301,0.967,0.426,0.739,0.697,��쓌,9.6,��
2019/09/07,13:20,0.753,1.061,0.731,1.302,0.967,0.427,0.741,0.697,��쓌,9.7,��
2019/09/07,13:30,0.750,1.061,0.731,1.301,0.969,0.428,0.740,0.696,��쓌,9.8,��
2019/09/07,13:40,0.751,1.061,0.730,1.301,0.969,0.428,0.739,0.698,��쓌,10.5,��
2019/09/07,13:50,0.753,1.062,0.729,1.301,0.970,0.429,0.741,0.698,��쓌,8.3,��
2019/09/07,14:00,0.752,1.064,0.731,1.300,0.969,0.428,0.741,0.696,��쓌,9.4,��
2019/09/07,14:10,0.752,1.063,0.731,1.299,0.969,0.428,0.742,0.697,��쓌,9.9,��
2019/09/07,14:20,0.752,1.063,0.732,1.298,0.968,0.427,0.741,0.696,��쓌,9.7,��
2019/09/07,14:30,0.752,1.060,0.732,1.301,0.969,0.429,0.741,0.696,��쓌,10.5,��
2019/09/07,14:40,0.753,1.062,0.730,1.301,0.969,0.428,0.744,0.698,��쓌,10.0,��
2019/09/07,14:50,0.751,1.061,0.730,1.300,0.969,0.428,0.743,0.696,��쓌,10.7,��
2019/09/07,15:00,0.753,1.063,0.731,1.302,0.969,0.427,0.742,0.698,��쓌,9.0,��
2019/09/07,15:10,0.750,1.063,0.730,1.302,0.969,0.428,0.742,0.697,��쓌,9.3,��
2019/09/07,15:20,0.752,1.064,0.731,1.302,0.971,0.429,0.743,0.696,��쓌,11.3,��
2019/09/07,15:30,0.752,1.069,0.733,1.300,0.970,0.428,0.741,0.698,��쓌,9.9,��
2019/09/07,15:40,0.753,1.062,0.732,1.302,0.969,0.430,0.741,0.696,��쓌,10.7,��
2019/09/07,15:50,0.751,1.065,0.732,1.302,0.971,0.428,0.741,0.698,��쓌,11.1,��
2019/09/07,16:00,0.752,1.065,0.733,1.302,0.970,0.427,0.741,0.697,��쓌,12.5,��
2019/09/07,16:10,0.754,1.067,0.732,1.301,0.970,0.429,0.744,0.697,��,10.6,��
2019/09/07,16:20,0.752,1.067,0.732,1.303,0.970,0.427,0.743,0.697,��쓌,11.4,��
2019/09/07,16:30,0.753,1.067,0.732,1.302,0.971,0.429,0.741,0.695,��,10.3,��
2019/09/07,16:40,0.755,1.067,0.732,1.303,0.967,0.427,0.740,0.697,��쓌,10.2,��
2019/09/07,16:50,0.754,1.069,0.732,1.303,0.969,0.429,0.741,0.697,��쓌,11.0,��
2019/09/07,17:00,0.752,1.066,0.733,1.303,0.972,0.429,0.741,0.697,��,10.0,��
2019/09/07,17:10,0.752,1.066,0.733,1.301,0.971,0.427,0.741,0.698,��,10.7,��
2019/09/07,17:20,0.754,1.065,0.734,1.303,0.972,0.429,0.742,0.698,��쓌,11.3,��
2019/09/07,17:30,0.752,1.065,0.732,1.304,0.969,0.429,0.741,0.699,��,10.2,��
2019/09/07,17:40,0.753,1.066,0.733,1.304,0.971,0.429,0.741,0.699,��,11.3,��
2019/09/07,17:50,0.753,1.068,0.733,1.302,0.969,0.427,0.740,0.697,��,10.2,��
2019/09/07,18:00,0.751,1.069,0.733,1.300,0.971,0.429,0.742,0.697,��,9.3,��
2019/09/07,18:10,0.752,1.071,0.732,1.303,0.972,0.430,0.741,0.697,��,9.6,��
2019/09/07,18:20,0.751,1.071,0.735,1.304,0.973,0.430,0.742,0.699,��,9.4,��
2019/09/07,18:30,0.753,1.069,0.734,1.303,0.972,0.430,0.740,0.697,��,9.3,��
2019/09/07,18:40,0.752,1.070,0.735,1.307,0.972,0.429,0.740,0.698,��,8.5,��
2019/09/07,18:50,0.752,1.070,0.735,1.303,0.971,0.430,0.742,0.697,��,7.2,��
2019/09/07,19:00,0.754,1.071,0.737,1.305,0.972,0.429,0.740,0.697,��,7.0,��
2019/09/07,19:10,0.753,1.066,0.735,1.305,0.971,0.430,0.742,0.698,��,8.3,��
2019/09/07,19:20,0.753,1.069,0.736,1.307,0.974,0.430,0.740,0.699,��,7.7,��
2019/09/07,19:30,0.751,1.071,0.736,1.306,0.972,0.429,0.740,0.698,��,7.4,��
2019/09/07,19:40,0.754,1.069,0.735,1.305,0.970,0.429,0.739,0.698,��,8.2,��
2019/09/07,19:50,0.752,1.067,0.736,1.306,0.972,0.429,0.739,0.698,��,7.8,��
2019/09/07,20:00,0.751,1.070,0.734,1.305,0.973,0.430,0.741,0.696,��,7.3,��
2019/09/07,20:10,0.751,1.067,0.735,1.306,0.974,0.430,0.741,0.699,��,8.0,��
2019/09/07,20:20,0.753,1.068,0.734,1.305,0.974,0.429,0.740,0.700,��,7.7,��
2019/09/07,20:30,0.753,1.070,0.736,1.307,0.971,0.429,0.741,0.698,��,7.6,��
2019/09/07,20:40,0.752,1.067,0.735,1.309,0.973,0.429,0.742,0.699,��,8.0,��
2019/09/07,20:50,0.751,1.066,0.734,1.306,0.972,0.428,0.740,0.698,��,7.7,��
2019/09/07,21:00,0.753,1.070,0.735,1.309,0.971,0.430,0.741,0.699,��,6.8,��
2019/09/07,21:10,0.753,1.067,0.735,1.307,0.971,0.428,0.741,0.699,��,7.5,��
2019/09/07,21:20,0.754,1.069,0.735,1.305,0.971,0.429,0.743,0.700,��,6.9,��
2019/09/07,21:30,0.754,1.069,0.733,1.303,0.974,0.429,0.741,0.698,��,5.8,��
2019/09/07,21:40,0.753,1.069,0.736,1.305,0.972,0.429,0.741,0.697,��,5.5,��
2019/09/07,21:50,0.752,1.067,0.736,1.305,0.972,0.430,0.741,0.699,��,5.1,��
2019/09/07,22:00,0.753,1.067,0.736,1.307,0.969,0.430,0.741,0.699,��,5.5,��
2019/09/07,22:10,0.753,1.067,0.735,1.305,0.973,0.430,0.742,0.700,��,5.9,��
2019/09/07,22:20,0.754,1.067,0.734,1.304,0.971,0.429,0.740,0.697,��,4.9,��
2019/09/07,22:30,0.755,1.069,0.735,1.305,0.974,0.428,0.741,0.697,��,5.4,��
2019/09/07,22:40,0.753,1.069,0.736,1.306,0.972,0.430,0.740,0.699,��,5.8,��
2019/09/07,22:50,0.752,1.070,0.734,1.306,0.972,0.427,0.742,0.699,��,5.6,��
2019/09/07,23:00,0.751,1.068,0.734,1.305,0.972,0.429,0.741,0.699,��,5.6,��
2019/09/07,23:10,0.753,1.067,0.737,1.306,0.973,0.429,0.742,0.698,��,5.3,��
2019/09/07,23:20,0.753,1.069,0.735,1.304,0.970,0.429,0.742,0.699,��,5.0,��
2019/09/07,23:30,0.754,1.065,0.737,1.305,0.973,0.429,0.741,0.700,��,5.0,��
2019/09/07,23:40,0.754,1.068,0.734,1.306,0.971,0.428,0.741,0.700,��,4.3,��
2019/09/07,23:50,0.753,1.065,0.734,1.308,0.972,0.428,0.740,0.699,��,4.6,��
